[[{"header":{"parameterUnit":"m.s-1","parameterCategory":1,"la1":30.2991,"la2":30.254,"lo1":-89.0895,"lo2":-89.0444,"dy":0.0017,"dx":0.0017,"nx":28,"ny":28,"refTime":"2025-01-13T09:00:00:Z","depth":0,"parameterNumber":2,"parameterNumberName":"U-component_of_WINDS"},"data":[0,0,0,0,0,0,0,0,0,0,0,0,0,0,0,0,0,0,0,0,0,0,0,0,0,0,0,0,0,0,0,0,0,0,0,0,0,0,0,0,0,0,0,0,0,0,0,0,0,0,0,0,0,0,0,0,0,0,-4.4559,-4.4561,0,-4.4796,-4.4799,-4.4802,-4.4781,-4.4778,-4.4774,-4.4771,-4.5022,-4.5032,-4.5042,0,0,0,0,0,0,0,0,0,0,0,0,0,-4.4094,-4.4103,-4.4559,-4.4562,-4.4565,-4.4796,-4.4799,-4.4802,-4.4782,-4.4778,-4.4773,-4.4769,-4.5018,-4.503,-4.5042,0,0,0,0,0,0,0,0,0,0,0,0,0,-4.431,-4.4106,-4.4558,-4.4582,-4.4587,-4.4795,-4.4799,-4.4803,-4.4783,-4.4777,-4.4772,-4.4767,-4.5015,-4.5029,-4.5044,-4.5247,0,0,-4.509,-4.5097,0,0,0,0,0,0,0,0,-4.4298,-4.4328,-4.4576,-4.4581,-4.4586,-4.4753,-4.4727,-4.4952,-4.4784,-4.4709,-4.4771,-4.4764,-4.4937,-4.4959,-4.5015,-4.5258,-4.5269,-4.5092,-4.5101,-4.5107,-4.5112,0,0,0,0,0,0,0,-4.4283,-4.4317,-4.4653,-4.4579,-4.4586,-4.4583,-4.4608,-4.477,-4.4851,-4.4715,-4.4714,-4.4742,-4.4939,-4.5001,-4.5021,-4.5273,-4.5091,-4.5105,-4.5114,-4.512,-4.5697,-4.5703,0,0,0,0,0,0,-4.4262,-4.4305,-4.4645,-4.466,-4.4426,-4.4596,-4.4624,-4.4705,-4.4849,-4.4866,-4.4746,-4.474,-4.4978,-4.5003,-4.503,-4.5279,-4.5107,-4.5121,-4.513,-4.569,-4.5698,-4.5705,0,0,0,0,0,0,-4.4252,-4.4292,-4.4636,-4.4482,-4.4526,-4.461,-4.4702,-4.4713,-4.4774,-4.4873,-4.4888,-4.4794,-4.4974,-4.5009,-4.5193,-4.5287,-4.5128,-4.5142,-4.5683,-4.5693,-4.5701,-4.5777,0,0,0,0,0,0,-4.4239,-4.4289,-4.4365,-4.4484,-4.4534,-4.4793,-4.4708,-4.4722,-4.48,-4.4794,-4.4921,-4.4937,-4.4973,-4.517,-4.5208,-4.5305,-4.5154,-4.5675,-4.5687,-4.5698,-4.5767,-4.5788,-4.5806,0,0,0,0,0,-4.4222,-4.4378,-4.4369,-4.441,-4.4631,-4.4798,-4.4827,-4.4863,-4.4807,-4.4886,-4.4949,-4.4933,-4.527,-4.5189,-4.5232,-4.5335,-4.5669,-4.5684,-4.5697,-4.5758,-4.5784,-4.5806,0,0,0,0,0,0,-4.4271,-4.4394,-4.4386,-4.4584,-4.4681,-4.4795,-4.4895,-4.4889,-4.5005,-4.4995,-4.5035,-4.5065,-4.5251,-4.5311,-4.5219,-4.5539,-4.5463,-4.5486,-4.5494,-4.552,-4.5539,-4.5523,-4.5166,0,0,0,0,0,-4.4304,-4.4428,-4.453,-4.4696,-4.4744,-4.4811,-4.4885,-4.4904,-4.5007,-4.5048,-4.5125,-4.5227,-4.5356,-4.544,-4.5564,-4.5774,-4.5803,-4.5865,-4.5885,-4.5901,-4.5922,-4.604,-4.607,-4.5751,-4.5751,-4.5751,0,0,-4.4376,-4.4459,-4.4535,-4.4707,-4.4784,-4.4914,-4.4846,-4.4986,-4.5083,-4.507,-4.5249,-4.5309,-4.5426,-4.5624,-4.5715,-4.568,-4.6016,-4.5919,-4.593,-4.5943,-4.6057,-4.6088,-4.6114,-4.576,-4.5759,-4.5757,0,0,-4.4574,-4.4647,-4.4794,-4.4872,-4.4988,-4.5031,-4.5066,-4.5181,-4.522,-4.5399,-4.5392,-4.551,-4.573,-4.5814,-4.5886,-4.6114,-4.6105,-4.6153,-4.6258,-4.6373,-4.6398,-4.642,-4.6505,-4.6535,-4.6173,-4.6173,-4.6173,0,-4.4649,-4.4842,-4.4871,-4.5012,-4.509,-4.508,-4.5231,-4.5306,-4.5458,-4.5513,-4.5469,-4.5747,-4.5825,-4.6044,-4.6099,-4.6156,-4.6201,-4.6141,-4.6391,-4.6414,-4.6436,-4.6517,-4.6549,-4.6178,-4.6178,-4.6177,-4.6176,0,-4.493,-4.5064,-4.5169,-4.5314,-4.5402,-4.5548,-4.5602,-4.5688,-4.5698,-4.5747,-4.5931,-4.6023,-4.6167,-4.6219,-4.6231,-4.6441,-4.6416,-4.6381,-4.6306,-4.6471,-4.6548,-4.658,-4.6186,-4.6184,-4.6182,-4.6181,0,0,-4.5169,-4.5326,-4.5365,-4.5431,-4.5557,-4.5663,-4.5808,-4.5946,-4.6021,-4.6125,-4.6251,-4.6437,-4.6406,-4.6487,-4.6508,-4.6608,-4.6787,-4.6562,-4.6565,-4.6604,-4.7028,-4.7056,-4.7091,-4.6779,-4.6785,-4.679,-4.7019,0,-4.5382,-4.5638,-4.5668,-4.5897,-4.6023,-4.6014,-4.6141,-4.6234,-4.6283,-4.6399,-4.6453,-4.6586,-4.6533,-4.6582,-4.668,-4.6744,-4.6873,-4.6727,-4.6901,-4.6907,-4.6876,-4.7131,-4.7162,-4.7373,-4.7049,-4.7054,-4.7058,0,-4.5666,-4.5776,-4.6017,-4.6127,-4.6181,-4.6294,-4.6424,-4.6532,-4.6638,-4.6667,-4.6757,-4.6765,-4.6918,-4.6833,-4.7047,-4.6947,-4.7019,-4.7061,-4.707,-4.7092,-4.6995,-4.7164,-4.7441,-4.7475,-4.7105,-4.7101,-4.7098,0,-4.5821,-4.6029,-4.6201,-4.6257,-4.6388,-4.6469,-4.6528,-4.6628,-4.6709,-4.6822,-4.6876,-4.7005,-4.7078,-4.718,-4.7224,-4.7157,-4.7437,-4.7354,-4.7468,-4.7468,-4.7532,-4.7528,-4.7829,-4.7571,-4.757,-4.7569,-4.7569,0,-4.6058,-4.6207,-4.6272,-4.6378,-4.6545,-4.6578,-4.6743,-4.6799,-4.6888,-4.7007,-4.7007,-4.7119,-4.7168,-4.7289,-4.7324,-4.7498,-4.753,-4.756,-4.7569,-4.7563,-4.756,-4.7614,-4.7602,-4.7578,-4.7576,-4.7574,-4.7573,0,-4.6262,-4.631,-4.6498,-4.6605,-4.6636,-4.6755,-4.6849,-4.6953,-4.6998,-4.7149,-4.7187,-4.7261,-4.7402,-4.7455,-4.7628,-4.7652,-4.7854,-4.7848,-4.7818,-4.7822,-4.7934,-4.7925,-4.8285,-4.8336,-4.804,-4.8042,-4.8045,0,-4.6412,-4.6526,-4.6646,-4.6724,-4.6785,-4.6911,-4.6993,-4.703,-4.7116,-4.7245,-4.7334,-4.7474,-4.7589,-4.7816,-4.7888,-4.8021,-4.8021,-4.8138,-4.8041,-4.8032,-4.8028,-4.8022,-4.8036,-4.8158,-4.8161,-4.8163,-4.8165,0,-4.6676,-4.6694,-4.6811,-4.6937,-4.7034,-4.7135,-4.7234,-4.7299,-4.7351,-4.7448,-4.7591,-4.768,-4.7855,-4.7996,-4.8132,-4.8196,-4.8192,-4.8194,-4.8228,-4.8226,-4.8205,-4.8222,-4.7872,-4.8187,-4.8185,-4.8183,-4.8182,-4.8181,-4.6861,-4.6962,-4.7062,-4.7193,-4.727,-4.7362,-4.7465,-4.7523,-4.7642,-4.7787,-4.7801,-4.7957,-4.8061,-4.8243,-4.8312,-4.8436,-4.8405,-4.8454,-4.8467,-4.848,-4.849,-4.8181,-4.8461,-4.846,-4.846,-4.8459,-4.8459,0,-4.7128,-4.7191,-4.731,-4.7447,-4.755,-4.7531,-4.7639,-4.7728,-4.7864,-4.796,-4.8072,-4.8238,-4.8374,-4.8455,-4.8592,-4.8676,-4.8678,-4.8712,-4.8708,-4.8724,-4.8508,-4.8466,-4.8708,-4.8708,-4.8708,-4.8708,-4.8708,-4.8708,-4.7279,-4.7451,-4.7481,-4.7691,-4.7754,-4.7904,-4.7968,-4.8054,-4.813,-4.8315,-4.8427,-4.8477,-4.8568,-4.8712,-4.8837,-4.8857,-4.891,-4.8948,-4.8966,-4.8764,-4.8739,-4.8714,-4.8676,-4.8958,-4.8958,-4.9172,-4.9174,-4.9176]},{"header":{"parameterUnit":"m.s-1","parameterCategory":1,"la1":30.2991,"la2":30.254,"lo1":-89.0895,"lo2":-89.0444,"dy":0.0017,"dx":0.0017,"nx":28,"ny":28,"refTime":"2025-01-13T09:00:00:Z","depth":0,"parameterNumber":3,"parameterNumberName":"V-component_of_WINDS"},"data":[0,0,0,0,0,0,0,0,0,0,0,0,0,0,0,0,0,0,0,0,0,0,0,0,0,0,0,0,0,0,0,0,0,0,0,0,0,0,0,0,0,0,0,0,0,0,0,0,0,0,0,0,0,0,0,0,0,0,-5.8252,-5.825,0,-5.8126,-5.8125,-5.8124,-5.7969,-5.7966,-5.7964,-5.7962,-5.7831,-5.783,-5.7829,0,0,0,0,0,0,0,0,0,0,0,0,0,-5.8354,-5.8353,-5.8252,-5.825,-5.8249,-5.8127,-5.8125,-5.8123,-5.7969,-5.7966,-5.7963,-5.796,-5.7832,-5.783,-5.7829,0,0,0,0,0,0,0,0,0,0,0,0,0,-5.8278,-5.8353,-5.8252,-5.8157,-5.8147,-5.8127,-5.8125,-5.8123,-5.797,-5.7966,-5.7962,-5.7959,-5.7832,-5.783,-5.7829,-5.7891,0,0,-5.7823,-5.7822,0,0,0,0,0,0,0,0,-5.8282,-5.8274,-5.8173,-5.8164,-5.8153,-5.8059,-5.8113,-5.8045,-5.7971,-5.8037,-5.7961,-5.7957,-5.791,-5.7902,-5.7886,-5.7885,-5.7879,-5.7823,-5.7822,-5.7821,-5.782,0,0,0,0,0,0,0,-5.8288,-5.8278,-5.8202,-5.8171,-5.8159,-5.812,-5.8105,-5.8099,-5.7996,-5.8031,-5.802,-5.8007,-5.7904,-5.7888,-5.7882,-5.7877,-5.7823,-5.7821,-5.782,-5.782,-5.7915,-5.7919,0,0,0,0,0,0,-5.8307,-5.8284,-5.8206,-5.8198,-5.821,-5.8121,-5.8104,-5.8093,-5.7995,-5.7977,-5.801,-5.8,-5.7893,-5.7884,-5.7877,-5.7939,-5.7821,-5.7819,-5.7818,-5.7912,-5.7916,-5.792,0,0,0,0,0,0,-5.831,-5.8302,-5.8211,-5.8238,-5.8223,-5.8123,-5.8112,-5.8093,-5.8077,-5.7979,-5.796,-5.8013,-5.789,-5.7879,-5.7887,-5.7933,-5.7819,-5.7817,-5.7907,-5.7913,-5.7918,-5.8068,0,0,0,0,0,0,-5.8314,-5.8304,-5.8328,-5.824,-5.8222,-5.8226,-5.8115,-5.8093,-5.8074,-5.806,-5.7977,-5.796,-5.7886,-5.7891,-5.7886,-5.7928,-5.7815,-5.7903,-5.791,-5.7916,-5.8059,-5.8078,-5.8095,0,0,0,0,0,-5.8318,-5.8375,-5.833,-5.8321,-5.825,-5.8229,-5.8219,-5.8133,-5.8079,-5.81,-5.8037,-5.7963,-5.7929,-5.7893,-5.7886,-5.7929,-5.79,-5.7908,-5.7916,-5.805,-5.8074,-5.8094,0,0,0,0,0,0,-5.8471,-5.8362,-5.831,-5.8341,-5.8295,-5.8203,-5.8228,-5.8161,-5.813,-5.8118,-5.8012,-5.7995,-5.8015,-5.7973,-5.7934,-5.7981,-5.7903,-5.791,-5.8008,-5.803,-5.8047,-5.8056,-5.7814,0,0,0,0,0,-5.8508,-5.8501,-5.8406,-5.8442,-5.8422,-5.8329,-5.8317,-5.8255,-5.8203,-5.8183,-5.812,-5.8072,-5.805,-5.8038,-5.8013,-5.8052,-5.803,-5.8078,-5.8096,-5.8111,-5.8118,-5.8131,-5.815,-5.7947,-5.7947,-5.7947,0,0,-5.8585,-5.8525,-5.8527,-5.8471,-5.8428,-5.8421,-5.8314,-5.8312,-5.8305,-5.8182,-5.8185,-5.8138,-5.8077,-5.81,-5.8107,-5.8066,-5.8169,-5.8122,-5.8135,-5.8132,-5.8142,-5.8161,-5.8178,-5.7952,-5.7951,-5.7951,0,0,-5.8721,-5.8676,-5.8699,-5.8659,-5.8595,-5.8533,-5.8539,-5.8456,-5.842,-5.8422,-5.8328,-5.8318,-5.8284,-5.8243,-5.8217,-5.8336,-5.8265,-5.8331,-5.8424,-5.8439,-5.8455,-5.8468,-5.8507,-5.8523,-5.8338,-5.8339,-5.8339,0,-5.8824,-5.8811,-5.872,-5.8723,-5.87,-5.8588,-5.861,-5.8575,-5.8507,-5.8492,-5.8447,-5.8399,-5.835,-5.8361,-5.8389,-5.8374,-5.8375,-5.8339,-5.846,-5.8473,-5.8484,-5.852,-5.8535,-5.8347,-5.8346,-5.8345,-5.8344,0,-5.8939,-5.8932,-5.8958,-5.8894,-5.8875,-5.8888,-5.8796,-5.8787,-5.8727,-5.8669,-5.867,-5.8608,-5.8566,-5.8564,-5.8506,-5.8565,-5.8541,-5.848,-5.8398,-5.8513,-5.8545,-5.8558,-5.8359,-5.8356,-5.8353,-5.8351,0,0,-5.9167,-5.9052,-5.9063,-5.9032,-5.8953,-5.8944,-5.8951,-5.8911,-5.8903,-5.886,-5.886,-5.8833,-5.8775,-5.8746,-5.8682,-5.8695,-5.8788,-5.8631,-5.8628,-5.8659,-5.8846,-5.889,-5.8908,-5.8741,-5.8744,-5.8746,-5.885,0,-5.9286,-5.9291,-5.9208,-5.9235,-5.9225,-5.9119,-5.9123,-5.9075,-5.9021,-5.9003,-5.8942,-5.8923,-5.885,-5.8831,-5.884,-5.8776,-5.8824,-5.8767,-5.8738,-5.8738,-5.8754,-5.8925,-5.8973,-5.9074,-5.8862,-5.8864,-5.8865,0,-5.9425,-5.9389,-5.9415,-5.9333,-5.9325,-5.9332,-5.9286,-5.9272,-5.9214,-5.9173,-5.9141,-5.9066,-5.9064,-5.8989,-5.8983,-5.8946,-5.8929,-5.8895,-5.8897,-5.8889,-5.8807,-5.8918,-5.9105,-5.9119,-5.8885,-5.8883,-5.8882,0,-5.9584,-5.9543,-5.9552,-5.9529,-5.9434,-5.944,-5.9401,-5.9339,-5.9319,-5.9279,-5.9265,-5.9226,-5.9204,-5.9174,-5.909,-5.9044,-5.9092,-5.9011,-5.9055,-5.9057,-5.9068,-5.9068,-5.9251,-5.9063,-5.9063,-5.9062,-5.9062,0,-5.9724,-5.9743,-5.9622,-5.9628,-5.9645,-5.9549,-5.9569,-5.9519,-5.9464,-5.9456,-5.9362,-5.9357,-5.9248,-5.9229,-5.9163,-5.9165,-5.9157,-5.9122,-5.9104,-5.9129,-5.9133,-5.9114,-5.9104,-5.9066,-5.9065,-5.9065,-5.9064,0,-5.9904,-5.9824,-5.9826,-5.9737,-5.9714,-5.9731,-5.9652,-5.9652,-5.9592,-5.9583,-5.9576,-5.9481,-5.9453,-5.9367,-5.9319,-5.9274,-5.9295,-5.9263,-5.9315,-5.9303,-5.935,-5.9346,-5.9526,-5.9543,-5.9348,-5.935,-5.9351,0,-5.9997,-6.0009,-5.9921,-5.9909,-5.9874,-5.9857,-5.9835,-5.9741,-5.9723,-5.9656,-5.9663,-5.9629,-5.9596,-5.9556,-5.9481,-5.9443,-5.9406,-5.9472,-5.94,-5.9423,-5.9403,-5.9402,-5.9401,-5.9487,-5.949,-5.9492,-5.9494,0,-6.017,-6.0129,-6.0103,-6.0063,-6.0041,-6.0004,-5.9962,-5.9958,-5.9852,-5.9836,-5.9807,-5.9781,-5.9731,-5.9696,-5.9645,-5.9601,-5.9529,-5.9517,-5.9525,-5.9549,-5.9577,-5.9559,-5.9354,-5.9513,-5.9511,-5.951,-5.9509,-5.9508,-6.0306,-6.0311,-6.0249,-6.0222,-6.0181,-6.0143,-6.0138,-6.0077,-6.0052,-6.0004,-5.9949,-5.9926,-5.9864,-5.9788,-5.9749,-5.9728,-5.9689,-5.9701,-5.9703,-5.9707,-5.9717,-5.9584,-5.9718,-5.9718,-5.9717,-5.9717,-5.9716,0,-6.0471,-6.0425,-6.0402,-6.0346,-6.0325,-6.026,-6.021,-6.0195,-6.0176,-6.0125,-6.0095,-6.006,-6.0025,-5.9947,-5.9904,-5.9902,-5.9867,-5.9893,-5.9891,-5.9881,-5.9756,-5.9752,-5.9922,-5.9922,-5.9922,-5.9922,-5.9922,-5.9922,-6.0554,-6.0557,-6.0509,-6.049,-6.0444,-6.0421,-6.0397,-6.0361,-6.0319,-6.0285,-6.0256,-6.0206,-6.0143,-6.0094,-6.0059,-6.0036,-6.0023,-6.006,-6.0027,-5.991,-5.9891,-5.9872,-5.9868,-6.0059,-6.0059,-6.0153,-6.0154,-6.0154]}]]